Bartow, FL

12:04 PM EST on December 06, 2016 (GMT -0500)
Bartow Municipal

Weather History for KBOW - September, 2012

Change the Weather History Date:

Wednesday, September 26, 2012

  Actual Average Record
Temperature  
Mean Temperature 78 °F -  
Max Temperature 87 °F 89 °F 96 °F (1980)
Min Temperature 69 °F 70 °F 35 °F (2006)
Cooling Degree Days 13    
Growing Degree Days 28 (Base 50)    
Moisture  
Dew Point 71 °F    
Average Humidity 91    
Maximum Humidity 100    
Minimum Humidity 49    
Precipitation  
Precipitation 0.02 in - - ()
Sea Level Pressure  
Sea Level Pressure 30.10 in    
Wind  
Wind Speed 2 mph (NNE)    
Max Wind Speed 15 mph    
Max Gust Speed -    
Visibility 7 miles    
Events Rain , Thunderstorm    
Averages and records for this station are not official NWS values.
T = Trace of Precipitation, MM = Missing Value Source: NWS Daily Summary

Daily Weather History Graph

Daily Weather History Graph

Search for Another Location

Airport or City:

Trip Planner

Search our weather history database for the weather conditions in past years. The results will help you decide how hot, cold, wet, or windy it might be!

Date:

Astronomy

Sep. 26, 2012 Rise Set
Actual Time 7:17 AM EDT 7:18 PM EDT
Civil Twilight 6:54 AM EDT 7:41 PM EDT
Nautical Twilight 6:27 AM EDT 8:08 PM EDT
Astronomical Twilight 5:59 AM EDT 8:36 PM EDT
Moon 5:04 PM EDT (9/26) 3:57 AM EDT (9/26)
Length of Visible Light 12h 47m
Length of Day
12h 00m
Waxing Gibbous, 88% of the Moon is Illuminated
Sep 26
Waxing Gibbous
Sep 29
Full
Oct 8
Last Quarter
Oct 15
New
Oct 21
First Quarter

Hourly Weather History & Observations

Time (EDT) Temp. Heat Index Dew Point Humidity Pressure Visibility Wind Dir Wind Speed Gust Speed Precip Events Conditions
12:15 AM 71.6 °F - 71.6 °F 100% 30.12 in 10.0 mi NNE 4.6 mph - N/A   Mostly Cloudy
12:35 AM 71.6 °F - 71.6 °F 100% 30.11 in 10.0 mi NE 3.5 mph - N/A   Scattered Clouds
12:55 AM 71.6 °F - 71.6 °F 100% 30.10 in 10.0 mi North 3.5 mph - N/A   Scattered Clouds
1:35 AM 69.8 °F - 69.8 °F 100% 30.10 in 8.0 mi Calm Calm - N/A   Clear
1:55 AM 69.8 °F - 69.8 °F 100% 30.10 in 8.0 mi Calm Calm - N/A   Mostly Cloudy
2:15 AM 69.8 °F - 69.8 °F 100% 30.09 in 8.0 mi Calm Calm - N/A   Mostly Cloudy
2:35 AM 69.8 °F - 69.8 °F 100% 30.09 in 8.0 mi Calm Calm - N/A   Mostly Cloudy
2:55 AM 69.8 °F - 69.8 °F 100% 30.08 in 7.0 mi Calm Calm - N/A   Scattered Clouds
3:15 AM 69.8 °F - 69.8 °F 100% 30.07 in 7.0 mi Calm Calm - N/A   Scattered Clouds
3:35 AM 69.8 °F - 69.8 °F 100% 30.07 in 9.0 mi Calm Calm - N/A   Overcast
4:15 AM 71.6 °F - 71.6 °F 100% 30.06 in 6.0 mi Calm Calm - N/A   Overcast
4:35 AM 71.6 °F - - N/A% 30.05 in 4.0 mi East 3.5 mph - N/A   Haze
4:55 AM 71.6 °F - - N/A% 30.06 in 2.5 mi Calm Calm - N/A   Overcast
5:15 AM 71.6 °F - - N/A% 30.07 in 1.8 mi East 4.6 mph - N/A   Overcast
5:35 AM 71.6 °F - - N/A% 30.07 in 2.0 mi ENE 3.5 mph - N/A   Overcast
5:55 AM 71.6 °F - - N/A% 30.08 in 1.2 mi Calm Calm - N/A   Overcast
6:15 AM 71.6 °F - - N/A% 30.09 in 1.0 mi ENE 3.5 mph - N/A   Overcast
6:35 AM 71.6 °F - - N/A% 30.09 in 3.0 mi Calm Calm - N/A   Overcast
7:15 AM 69.8 °F - - N/A% 30.10 in 3.0 mi Calm Calm - N/A   Scattered Clouds
7:30 AM 69.8 °F - 69.8 °F 100% 30.10 in 3.0 mi Calm Calm - N/A   Mostly Cloudy
8:55 AM 71.6 °F - 71.6 °F 100% 30.12 in 3.0 mi Calm Calm - N/A   Overcast
9:52 AM 77.0 °F - 69.8 °F 78% 30.13 in 10.0 mi Calm Calm - N/A   Mostly Cloudy
10:52 AM 82.4 °F 86.3 °F 69.8 °F 66% 30.13 in 12.0 mi NE 3.5 mph - N/A   Scattered Clouds
11:50 AM 82.4 °F 86.3 °F 69.8 °F 66% 30.13 in 12.0 mi Variable 4.6 mph - N/A   Mostly Cloudy
1:50 PM 87.8 °F 92.6 °F 69.8 °F 55% 30.11 in 12.0 mi ENE 5.8 mph - N/A   Mostly Cloudy
3:35 PM 87.8 °F 90.4 °F 66.2 °F 49% 30.07 in 8.0 mi North 8.1 mph - N/A Thunderstorm Mostly Cloudy
3:55 PM 84.2 °F 87.3 °F 68.0 °F 58% 30.06 in 7.0 mi North 6.9 mph - N/A Thunderstorm Unknown
4:15 PM 84.2 °F 87.3 °F 68.0 °F 58% 30.07 in 9.0 mi NNE 6.9 mph - N/A Thunderstorm Mostly Cloudy
4:35 PM 78.8 °F - 69.8 °F 74% 30.09 in 7.0 mi SSE 15.0 mph - N/A Thunderstorm Overcast
5:15 PM 73.4 °F - 71.6 °F 94% 30.08 in 1.5 mi Calm Calm - 0.02 in Thunderstorm Overcast
5:35 PM 73.4 °F - 73.4 °F 100% 30.07 in 3.0 mi Calm Calm - 0.02 in Thunderstorm Mostly Cloudy
5:55 PM 73.4 °F - 73.4 °F 100% 30.08 in 5.0 mi NW 5.8 mph - 0.02 in Rain , Thunderstorm Light Rain
6:15 PM 75.2 °F - 71.6 °F 89% 30.09 in 7.0 mi NW 4.6 mph - N/A Thunderstorm Scattered Clouds
6:35 PM 75.2 °F - 73.4 °F 94% 30.09 in 8.0 mi North 3.5 mph - N/A Thunderstorm Partly Cloudy
6:55 PM 75.2 °F - 71.6 °F 89% 30.10 in 8.0 mi NNW 4.6 mph - N/A   Partly Cloudy
7:15 PM 73.4 °F - 71.6 °F 94% 30.11 in 10.0 mi Calm Calm - N/A   Partly Cloudy
7:35 PM 73.4 °F - 71.6 °F 94% 30.11 in 10.0 mi Calm Calm - N/A   Partly Cloudy
7:55 PM 73.4 °F - 73.4 °F 100% 30.12 in 8.0 mi Calm Calm - N/A   Mostly Cloudy
8:35 PM 73.4 °F - 73.4 °F 100% 30.13 in 7.0 mi NNE 3.5 mph - N/A   Scattered Clouds
8:55 PM 73.4 °F - 73.4 °F 100% 30.13 in 9.0 mi Calm Calm - N/A   Scattered Clouds
9:15 PM 73.4 °F - 73.4 °F 100% 30.12 in 5.0 mi Calm Calm - N/A   Scattered Clouds
9:35 PM 73.4 °F - 73.4 °F 100% 30.13 in 8.0 mi Calm Calm - N/A   Scattered Clouds
9:55 PM 73.4 °F - 73.4 °F 100% 30.13 in 7.0 mi NE 3.5 mph - N/A   Partly Cloudy
10:15 PM 73.4 °F - 73.4 °F 100% 30.13 in 7.0 mi Calm Calm - N/A   Scattered Clouds
10:35 PM 73.4 °F - 73.4 °F 100% 30.14 in 8.0 mi Calm Calm - N/A   Mostly Cloudy
10:55 PM 73.4 °F - 73.4 °F 100% 30.13 in 8.0 mi Calm Calm - N/A   Scattered Clouds
11:15 PM 73.4 °F - 73.4 °F 100% 30.13 in 5.0 mi Calm Calm - N/A   Partly Cloudy
11:35 PM 71.6 °F - 71.6 °F 100% 30.13 in 4.0 mi Calm Calm - N/A   Scattered Clouds
11:55 PM 73.4 °F - - N/A% 30.13 in 5.0 mi Calm Calm - N/A   Haze